Location: Austin
(30.3000°N, 97.7500°W)
Time: 21:54:04
(UTC-06:00)

Cosmos 1782 - Pass Details

Date: 03 December 2025
Orbit: 468 x 477 km, 82.5° (Epoch: 07 December)

Event Time Altitude Azimuth Distance (km) Brightness Sun altitude
Exits shadow 06:08:23 18° 323° (NW) 1,202 4.1 -13.5°
Maximum altitude 06:10:27 34° 268° (W) 786 3.1 -13.1°
Drops below altitude 10° 06:13:41 10° 202° (SSW) 1,617 5.2 -12.5°
Sets 06:15:52 0° 192° (SSW) 2,489 6.3 -12.0°
